Theta_e
324 326 327 329 329 328 328 327 330 332 332 331 329 331 332 332 331 327 329 326 316 317 320 317 318 318 318 319 317 317 317 316 316 316 316 318 318 318 318 317 317 318 319 319 318 318 317 317 318 319 319 318 317 317 317 316 316 316 316 316 316 316 316 317 318 318 318 318 318 319 320 320 320 320 320 320 320 319 319 318 316 315 314 313 313 312
323 326 326 326 327 327 328 328 331 333 331 329 329 331 332 332 331 329 329 327 318 318 323 320 318 318 317 318 317 316 316 316 315 316 316 317 319 319 319 318 318 318 318 319 319 318 318 318 318 319 319 319 319 318 317 317 316 316 316 316 316 316 316 316 316 316 317 316 316 316 316 316 317 318 318 318 318 319 319 319 319 318 316 315 315 314
324 324 324 323 326 328 329 329 330 330 330 331 330 330 332 331 330 331 327 324 320 320 327 325 321 321 319 318 317 315 316 317 317 317 318 319 319 319 320 321 321 320 319 319 319 319 318 318 318 319 319 319 319 318 318 318 317 317 316 316 316 316 316 316 316 316 316 316 316 316 315 316 316 316 317 317 318 319 319 319 320 319 318 318 317 316
326 324 323 322 325 328 329 328 329 330 330 332 332 330 332 331 330 333 329 323 321 321 325 326 324 322 321 321 319 317 316 317 318 318 319 319 319 320 321 322 323 323 322 321 321 320 319 319 319 319 319 318 319 319 319 319 319 318 317 316 316 316 316 316 316 316 315 317 317 318 318 318 319 318 318 318 318 318 318 318 319 319 319 319 319 318
326 325 323 323 325 327 329 328 328 330 330 332 332 331 333 331 331 333 329 322 319 319 320 322 326 326 324 325 323 320 318 317 319 318 319 320 319 321 321 321 323 323 324 324 323 323 322 321 320 320 319 318 318 318 319 319 319 319 317 317 316 316 316 316 316 316 317 318 319 319 320 320 321 320 319 319 317 316 315 316 316 316 318 319 319 319
325 323 323 324 325 326 328 329 329 329 331 332 331 331 332 332 332 331 325 320 323 326 323 322 330 334 332 331 327 323 322 320 318 317 318 320 320 321 321 322 324 324 325 325 324 325 324 324 323 322 322 319 318 318 319 319 319 319 318 318 317 316 316 316 315 316 318 319 319 320 320 319 319 318 317 316 314 313 314 314 313 314 315 317 318 319
324 322 323 324 325 327 328 329 329 328 331 332 331 331 332 332 332 330 324 325 331 332 325 321 329 336 334 333 331 327 326 324 320 317 316 317 319 319 321 323 325 325 325 325 324 325 324 324 324 323 323 322 320 320 319 320 320 319 319 318 318 317 316 316 315 316 318 320 320 319 319 318 317 316 314 313 313 313 314 314 314 314 315 315 316 317
323 322 323 324 326 327 327 328 328 328 330 332 331 332 332 330 330 328 325 329 331 327 324 320 324 332 330 330 333 329 329 328 325 323 319 315 317 319 320 323 325 325 325 325 325 325 324 324 324 324 324 323 323 322 321 321 321 321 319 319 318 317 316 316 316 316 317 318 318 318 318 318 317 316 314 314 315 315 315 315 315 315 315 315 315 316
323 323 323 324 326 326 326 327 326 327 329 329 331 332 330 330 330 327 323 327 327 326 328 323 320 328 329 328 328 325 327 329 327 326 323 318 318 320 321 323 324 325 325 325 325 325 325 325 325 325 324 324 323 323 323 323 323 322 320 319 318 318 317 316 316 317 317 317 318 319 319 318 317 315 315 316 316 316 316 316 316 316 316 316 316 316
323 323 322 323 325 325 327 327 325 328 328 325 327 329 328 328 328 328 327 328 329 328 329 326 322 328 331 330 327 323 325 328 326 325 324 319 319 321 322 323 324 325 325 325 325 325 325 325 325 325 324 324 323 323 323 323 323 323 321 319 319 319 318 317 317 317 317 318 320 320 319 317 316 316 317 317 317 316 316 316 316 316 317 317 317 317
322 321 321 323 323 324 327 326 324 326 324 323 326 328 328 328 327 329 329 328 330 329 330 328 324 327 331 331 328 324 325 327 325 325 324 320 319 321 323 323 324 324 324 324 324 324 324 324 324 324 324 324 323 322 322 322 322 322 321 319 318 318 319 319 318 319 319 319 320 319 318 317 315 316 317 317 316 316 316 316 316 316 317 317 318 318
323 323 323 323 322 322 325 325 323 322 322 325 330 329 329 329 326 328 327 326 331 331 329 327 323 324 329 332 331 326 325 328 326 326 327 323 320 322 324 324 323 323 323 323 323 322 323 323 323 324 324 324 324 323 322 322 321 321 321 319 318 318 318 319 320 320 320 320 320 318 317 317 315 316 317 316 315 315 315 315 316 317 317 318 318 319
324 323 324 324 322 322 325 325 323 323 324 326 329 330 331 330 328 330 329 328 332 330 323 321 322 324 327 329 330 326 324 326 323 321 323 322 319 322 324 323 322 321 321 321 321 321 321 322 322 322 323 323 324 323 322 322 321 321 320 319 318 318 318 319 320 320 320 320 319 317 316 316 315 316 316 315 315 315 315 316 317 317 317 318 319 319
325 324 324 324 323 322 324 325 325 325 325 326 327 330 332 331 331 334 332 330 332 328 320 319 322 326 328 328 326 325 323 322 320 318 319 319 319 321 322 321 321 321 320 320 321 321 321 322 322 321 322 322 322 323 323 322 322 321 320 319 319 319 319 319 320 320 321 319 317 316 316 316 316 316 316 315 315 316 316 317 317 317 318 319 319 319
326 327 325 324 324 324 323 324 325 325 325 325 327 329 330 330 333 336 334 333 333 326 319 320 325 329 332 328 322 319 318 317 318 319 319 318 319 319 320 320 321 321 321 320 320 321 322 322 322 322 321 322 322 322 323 322 322 321 320 320 319 319 319 319 320 320 321 320 317 315 316 316 316 317 316 316 316 317 317 317 317 318 319 319 319 320
326 328 325 323 323 323 324 324 323 325 326 325 327 330 330 329 332 330 326 327 329 326 322 321 325 328 327 324 318 315 314 314 314 314 314 316 318 317 318 318 319 320 320 320 320 321 321 321 322 322 322 322 322 322 323 322 322 321 320 320 320 320 319 319 320 320 320 320 318 316 315 316 316 317 316 316 316 317 317 317 318 318 319 319 320 320
325 327 325 323 323 323 324 324 322 325 327 325 326 329 326 324 329 327 320 320 325 329 328 322 324 327 326 325 322 321 321 318 317 315 311 312 314 315 316 317 318 318 319 320 320 320 321 321 322 322 322 322 322 322 321 320 320 319 319 319 319 319 319 319 319 319 320 319 319 317 316 316 317 317 316 316 316 316 317 318 318 318 319 319 319 320
326 327 323 323 325 324 322 323 322 322 324 325 327 326 322 322 328 329 325 324 325 328 328 324 324 328 330 329 323 321 323 322 322 321 314 311 311 311 314 317 317 317 318 319 320 320 320 320 321 321 321 321 320 320 319 319 318 318 318 318 318 318 318 318 319 319 319 319 319 318 316 317 318 317 316 316 316 317 317 318 318 317 318 317 318 320
325 327 323 322 325 324 321 323 325 322 319 322 325 323 324 328 327 326 327 328 326 328 330 325 320 322 327 327 320 319 323 322 320 320 319 315 311 310 314 317 317 317 318 319 319 319 320 320 320 320 320 320 319 319 318 318 318 318 317 317 317 317 317 317 318 319 318 318 318 317 317 318 318 318 316 316 316 317 317 316 316 316 315 316 317 318
323 326 325 322 322 324 323 324 326 325 320 320 323 323 327 329 327 327 328 330 329 328 330 327 323 323 323 320 320 323 324 322 320 320 320 317 312 312 315 316 317 317 318 320 319 318 319 319 320 320 319 319 318 318 317 318 318 318 317 317 317 317 317 317 317 318 318 318 317 317 318 318 317 317 316 316 316 316 315 314 314 314 314 314 315 314
322 324 326 321 320 324 326 324 325 326 322 322 325 325 326 326 326 328 328 329 330 329 330 330 328 329 325 318 319 321 321 321 320 320 320 314 311 314 316 316 318 318 318 320 318 318 319 319 319 319 319 318 317 316 316 316 317 317 317 317 316 316 316 316 317 317 317 317 317 317 317 317 316 316 315 315 315 314 313 312 312 312 312 312 312 311
322 324 324 321 322 325 326 324 324 324 322 323 325 324 325 324 326 329 328 327 327 326 330 330 327 329 327 317 315 318 319 319 318 318 318 313 312 316 317 317 318 318 318 319 319 318 318 318 318 318 317 317 316 316 316 316 316 316 315 315 315 315 315 315 315 316 316 316 316 316 316 315 315 314 314 313 313 312 312 311 311 311 311 311 311 311
322 324 323 321 323 323 322 322 325 325 322 322 324 323 324 324 324 328 329 327 325 323 326 326 324 326 321 313 315 318 317 315 314 313 314 312 313 315 317 318 318 318 318 319 318 318 318 318 317 317 316 316 316 316 315 315 315 315 315 314 313 313 313 313 313 313 314 314 314 314 313 313 313 312 312 312 311 311 311 311 311 311 311 311 311 310
321 323 322 321 322 320 319 320 323 324 322 322 323 322 323 324 324 327 328 326 326 324 325 326 326 327 319 314 316 313 311 311 310 311 312 311 313 315 316 317 318 318 318 318 317 317 317 317 317 316 316 315 316 316 315 315 315 315 314 314 313 313 312 312 312 312 312 312 312 312 312 311 311 311 311 311 311 311 311 311 311 311 311 311 311 310
322 322 321 323 323 321 321 322 322 321 321 322 322 321 322 323 323 325 325 323 325 326 325 326 329 326 318 315 315 312 313 314 310 310 312 311 312 314 315 317 318 318 318 317 317 316 316 317 317 316 316 315 315 316 315 315 315 314 314 314 313 312 312 312 312 312 312 312 312 311 311 311 311 311 311 311 311 311 311 311 311 310 311 311 311 311
322 323 322 323 325 324 324 326 324 322 321 321 322 321 322 323 323 323 324 323 325 326 324 325 327 324 315 313 314 314 317 318 312 310 311 310 311 314 315 317 317 318 318 317 316 316 316 317 317 316 316 315 315 315 315 315 314 314 314 313 313 312 312 312 312 312 312 311 312 311 311 311 311 311 311 311 311 311 311 311 311 310 311 311 311 311
322 323 322 322 323 323 324 326 325 323 322 322 322 321 321 322 322 323 324 324 325 325 324 323 324 322 317 316 319 318 318 322 321 314 310 310 312 314 315 316 317 317 317 316 316 316 316 316 317 316 316 315 315 315 315 314 314 314 314 313 313 312 312 312 312 312 312 311 311 311 311 311 311 311 311 311 311 311 310 311 311 311 311 311 311 310
321 321 321 321 321 321 323 325 324 322 323 323 323 322 321 322 322 323 325 324 324 324 324 323 321 322 320 321 326 327 324 326 325 314 309 312 314 314 315 316 316 317 316 316 316 316 316 316 316 316 316 315 315 315 314 314 314 314 314 313 313 312 312 311 311 311 312 311 311 311 311 311 311 311 311 310 310 310 311 311 311 311 311 311 311 310
321 321 321 321 321 321 323 325 324 322 322 322 322 322 321 321 322 322 323 323 323 324 323 322 321 320 319 320 326 326 321 319 317 312 310 312 313 314 315 315 316 316 316 316 316 316 316 317 316 316 315 314 314 314 314 314 314 314 313 313 312 312 312 311 311 311 312 311 311 311 311 311 311 311 310 311 311 311 312 311 311 311 311 311 310 310
320 321 321 321 321 321 323 326 324 322 322 322 322 322 321 321 321 321 322 322 322 322 322 321 321 319 317 318 320 320 316 312 311 311 311 312 312 313 315 315 315 316 316 316 316 316 316 316 316 315 315 314 314 314 314 315 315 314 314 313 313 312 312 311 311 311 311 311 311 311 311 311 310 311 311 311 312 312 312 311 311 311 311 310 310 310
319 321 321 321 322 321 321 324 324 322 322 322 322 322 321 321 321 321 321 321 321 322 321 320 321 319 317 316 315 315 315 314 312 311 311 312 313 313 313 314 315 315 315 315 316 316 316 316 316 315 315 315 314 314 314 314 314 314 314 313 313 312 312 311 311 311 311 311 311 311 311 311 311 311 312 312 312 312 312 311 311 311 310 310 310 310
318 321 322 321 321 321 320 321 323 322 322 323 323 322 321 321 321 321 321 321 321 321 321 321 320 319 318 317 315 313 314 316 315 312 312 313 314 314 315 315 315 315 315 315 316 316 315 315 316 315 315 315 315 314 314 314 313 314 314 313 313 312 312 311 311 311 311 311 311 311 311 311 312 312 312 312 312 312 311 311 311 311 310 310 310 310
319 320 321 321 321 321 320 319 320 321 323 323 322 321 321 321 320 321 320 320 320 320 321 321 320 319 319 319 318 316 315 315 315 315 314 314 315 315 316 316 316 316 316 316 317 316 315 315 315 315 315 315 315 314 314 313 313 314 314 313 313 312 311 311 311 311 311 311 311 312 312 312 312 312 312 312 312 312 311 311 311 311 311 311 310 310
319 320 320 320 321 322 320 318 320 321 322 324 322 320 321 321 320 321 321 320 320 319 320 320 319 319 321 321 319 317 314 314 314 315 316 316 316 316 316 316 317 317 317 317 318 316 315 315 314 315 315 315 316 316 314 313 313 314 313 313 312 312 311 311 311 311 311 312 312 312 312 312 312 312 312 312 312 311 311 311 311 311 311 311 310 310
318 320 320 320 321 321 319 318 320 321 322 323 321 319 320 320 320 320 321 320 319 319 320 320 319 319 320 319 317 316 314 313 315 316 316 317 317 317 317 316 317 317 318 318 318 317 316 315 315 316 316 316 317 317 316 314 313 313 313 312 312 311 311 311 311 311 312 312 312 312 312 312 312 312 312 312 312 311 311 311 311 311 311 310 310 310
314 317 319 319 320 321 320 319 321 323 323 321 320 319 319 319 320 321 321 320 319 319 319 319 319 319 319 317 316 316 316 315 314 315 316 317 317 317 317 317 317 318 318 318 318 318 317 317 316 316 317 317 317 318 317 315 313 313 312 312 312 311 311 311 311 311 312 311 311 311 311 311 312 311 311 311 311 311 311 311 311 311 311 310 310 310
310 313 317 318 319 321 321 319 321 324 324 321 320 319 319 319 320 320 321 321 319 318 319 319 319 319 318 317 316 315 315 314 314 314 316 317 317 317 317 317 318 318 318 318 318 318 318 318 318 317 317 317 317 318 317 315 313 313 312 311 312 311 311 311 311 312 312 311 311 311 311 311 311 311 311 311 311 311 311 311 311 311 311 310 310 310
309 311 313 316 318 320 321 320 321 323 323 321 319 318 318 318 318 319 321 321 320 319 317 318 319 318 318 318 315 312 313 316 316 316 315 316 317 317 317 317 317 317 317 318 318 318 319 318 318 318 318 317 317 318 317 315 313 313 312 311 311 311 311 311 311 311 311 312 312 311 311 312 311 311 311 311 311 311 311 311 311 311 310 310 310 310
307 309 310 312 316 319 320 321 321 321 322 321 320 318 317 317 317 319 321 321 320 319 317 317 318 318 318 317 312 311 315 318 318 316 314 315 316 317 317 317 317 317 317 317 317 318 318 318 318 317 317 317 317 317 316 315 314 313 312 311 311 311 311 311 312 312 312 312 312 312 312 312 311 311 311 311 311 311 311 311 311 311 310 310 310 310
308 309 311 313 315 316 319 321 321 322 323 323 321 317 316 315 316 321 322 321 319 317 316 316 317 317 317 315 312 313 316 317 317 316 314 315 316 316 317 317 317 317 317 317 318 318 318 318 318 317 317 318 317 317 317 316 315 315 314 312 311 311 311 311 311 312 312 312 312 312 312 312 311 312 312 311 311 311 311 311 310 310 310 310 310 310
310 310 312 315 316 316 318 321 322 323 323 322 319 315 314 316 318 321 322 320 316 316 316 315 316 316 316 314 313 314 316 316 317 317 315 315 316 316 316 317 317 317 317 317 318 318 318 318 317 317 318 318 317 317 317 317 316 316 316 314 312 311 311 311 312 311 311 311 312 312 312 312 312 312 311 311 311 311 311 310 310 310 310 310 310 310
312 312 313 315 316 316 317 319 322 323 318 315 315 314 314 319 321 319 318 315 314 315 316 315 315 316 316 314 314 315 316 316 317 316 315 315 316 315 316 317 316 317 317 317 317 317 317 317 317 317 317 317 317 317 317 316 316 316 316 315 314 312 311 311 311 311 311 311 311 311 311 311 311 311 311 311 311 311 311 311 310 310 310 310 310 310
312 313 314 315 315 317 317 318 321 323 315 309 312 316 317 318 316 312 312 312 312 313 314 315 315 316 316 315 315 316 316 316 316 315 315 315 315 315 316 316 316 317 317 317 317 317 317 317 317 317 317 317 317 316 316 316 316 316 315 315 315 314 312 311 311 311 311 311 311 311 311 311 311 311 311 311 311 311 311 310 310 310 310 310 310 310
310 312 315 315 315 316 318 318 319 318 312 307 309 314 313 311 309 308 310 311 310 311 312 313 313 314 314 314 315 315 315 315 315 315 315 315 315 315 316 316 316 316 316 316 316 316 316 316 316 316 316 317 316 317 316 316 316 316 315 315 315 314 312 311 311 311 311 311 311 311 311 311 311 311 311 311 311 310 310 310 310 310 310 310 309 309
309 310 311 311 312 313 315 315 314 312 309 307 308 309 308 308 308 309 310 310 310 310 311 311 312 312 312 313 313 313 313 314 315 314 314 314 314 314 315 315 315 315 315 315 315 315 315 315 315 315 316 316 316 316 316 316 316 316 316 316 316 315 314 313 311 311 311 311 311 311 311 311 311 311 311 310 310 310 310 310 310 310 310 309 309 309
307 307 308 309 310 310 310 309 309 309 308 307 307 308 307 308 309 309 309 310 310 310 310 310 311 311 311 311 312 312 313 313 313 313 313 313 313 313 313 314 314 314 315 315 315 315 315 315 315 315 315 315 315 315 316 316 316 316 316 316 316 316 316 314 313 313 313 312 312 311 311 311 311 311 311 310 310 310 310 310 310 310 309 309 309 309
307 307 308 309 310 311 310 310 311 310 308 307 307 308 307 307 308 308 309 309 309 309 309 310 310 310 311 311 311 311 312 312 312 312 312 312 313 313 313 313 313 314 314 314 314 314 314 314 314 313 313 314 314 315 315 315 315 315 316 315 315 315 315 314 314 314 313 313 312 311 310 310 310 310 310 310 310 310 310 309 309 309 309 309 309 309
308 307 309 310 309 310 310 310 309 308 307 306 306 307 307 307 307 307 307 308 308 309 309 309 309 309 309 310 310 310 310 310 311 311 311 311 312 312 312 313 313 313 313 313 313 313 312 312 312 312 312 313 313 313 313 314 314 314 314 314 314 314 314 314 314 314 314 314 313 312 312 311 310 310 310 310 310 310 310 309 309 309 309 309 309 309
306 306 309 310 310 309 310 309 308 308 309 308 306 306 306 306 306 306 306 307 308 309 309 308 309 309 308 309 309 309 309 309 310 310 310 311 311 311 312 312 312 312 312 312 312 312 311 311 311 311 311 312 312 312 312 312 312 313 313 313 313 313 313 313 313 313 313 312 312 312 312 311 311 311 311 311 311 311 310 309 309 309 309 309 309 309
304 307 309 309 310 309 310 310 309 309 310 308 306 306 306 305 305 306 306 307 308 308 308 307 307 307 307 307 307 307 308 308 308 309 309 309 310 310 311 311 312 312 312 312 312 312 311 311 311 311 311 312 312 312 312 311 312 312 312 312 312 312 312 312 312 311 311 311 311 311 311 311 311 311 311 311 310 310 310 309 309 308 308 308 308 308
302 305 307 308 309 308 307 308 307 307 307 307 306 306 306 306 306 306 306 307 307 307 306 305 304 304 304 304 305 305 306 307 307 307 308 308 309 309 310 311 311 311 312 312 312 312 312 312 312 312 312 312 312 312 312 312 312 312 312 312 312 311 311 311 311 311 311 311 311 310 310 310 310 310 310 310 310 310 309 309 308 308 307 307 307 307
Wind_Speed
18 9 8 12 14 15 15 15 10 3 7 9 7 6 8 8 6 5 3 5 8 6 7 11 12 12 12 12 17 23 17 16 20 20 22 24 26 29 30 33 36 38 39 35 32 32 31 31 30 29 30 31 32 33 33 33 33 32 31 31 32 31 31 31 31 31 30 31 30 30 32 33 33 33 32 32 31 31 30 29 28 29 28 29 29 30
15 9 15 19 14 13 11 8 6 5 8 9 9 8 8 8 6 4 4 3 6 5 5 7 9 12 14 13 17 18 11 13 21 22 25 28 29 30 30 32 33 35 37 36 36 36 34 35 34 34 34 34 35 35 35 35 34 33 33 33 33 32 32 33 32 32 32 31 31 30 30 30 30 31 32 32 32 32 32 31 31 31 30 30 30 31
10 13 20 18 11 10 9 7 5 6 9 8 7 7 6 6 1 2 2 1 5 4 4 4 6 11 13 11 15 17 14 17 25 27 29 31 31 32 32 32 32 33 35 37 38 38 37 37 36 37 37 36 36 35 35 35 35 35 36 35 34 34 34 34 33 33 33 32 30 29 27 27 27 28 29 30 31 32 33 34 34 33 33 33 33 32
11 15 19 17 12 12 10 9 6 3 6 5 6 7 5 5 4 3 3 1 4 3 2 2 5 8 8 7 12 20 23 23 28 31 32 33 32 32 33 33 33 34 35 36 37 38 38 38 38 38 38 37 37 37 37 37 36 37 38 37 36 36 35 35 35 34 34 32 30 29 28 27 28 28 28 29 30 32 33 35 35 36 36 36 36 35
9 6 17 18 13 14 11 10 10 5 4 3 5 7 4 5 6 4 2 2 1 1 1 3 5 8 7 8 12 14 14 19 27 29 30 34 35 34 35 34 35 35 36 36 37 37 37 38 38 38 37 37 38 38 38 37 36 37 38 38 38 37 36 35 35 35 34 34 32 32 31 31 32 32 32 32 32 32 32 32 32 33 35 37 37 37
7 9 23 19 12 16 13 11 13 9 6 4 6 7 6 7 6 4 4 3 2 3 3 3 3 7 3 7 12 8 3 10 17 19 25 32 33 34 35 37 38 38 38 38 38 37 37 38 39 38 38 38 39 39 38 36 35 35 36 37 38 38 37 36 36 36 36 36 35 34 35 35 35 35 35 33 31 30 29 28 27 28 30 32 35 37
4 11 20 16 15 18 13 11 13 12 8 6 5 7 6 7 6 5 6 4 3 4 3 3 5 7 4 6 10 6 5 10 10 11 20 27 29 31 34 39 41 41 41 41 40 39 39 40 39 39 39 40 41 40 38 37 36 36 36 36 37 38 38 37 36 37 37 37 36 36 36 36 36 36 34 31 29 29 28 27 27 27 27 28 30 32
7 13 16 17 18 14 13 13 13 15 10 4 7 11 6 6 6 5 6 4 4 2 3 1 4 5 8 7 4 3 6 10 10 11 15 20 28 32 35 40 42 43 44 43 44 43 42 42 41 41 40 40 41 39 39 39 38 38 37 36 36 36 37 37 37 37 37 37 36 36 36 36 36 35 33 31 31 30 30 29 28 28 28 28 28 29
13 17 18 20 17 12 14 11 11 15 8 2 6 10 6 6 5 3 4 2 1 2 4 3 3 3 8 7 2 0 5 11 14 15 13 17 25 31 35 39 40 41 42 43 45 45 43 44 42 41 40 39 39 39 39 39 38 38 38 37 37 36 37 37 37 37 37 37 36 36 36 36 36 35 34 34 33 33 32 32 31 30 29 29 28 28
9 18 20 18 13 10 8 7 12 14 5 2 7 9 6 6 5 4 3 3 3 2 7 6 5 5 9 7 3 1 4 11 14 12 11 15 23 28 31 34 35 36 37 39 41 41 41 41 41 40 40 39 38 37 38 37 36 37 38 38 38 37 37 37 38 38 37 37 37 37 36 36 35 35 35 35 34 34 34 33 32 32 31 30 29 29
6 16 18 12 10 9 9 9 12 12 8 8 9 8 6 5 4 4 2 4 2 5 7 9 10 7 8 8 7 5 7 11 11 9 8 11 20 27 30 33 36 36 36 37 37 37 37 36 36 37 38 38 36 36 37 37 36 37 38 39 38 36 36 36 37 38 37 37 37 37 36 35 35 35 36 36 34 34 34 33 33 32 32 31 31 30
8 12 10 9 16 16 13 7 7 10 12 8 6 6 4 2 3 3 3 3 2 6 4 7 10 9 9 7 5 7 8 8 9 9 8 8 18 28 31 32 33 33 35 36 36 36 36 36 37 37 37 36 35 35 35 36 37 37 38 39 38 37 36 35 36 37 36 37 37 36 36 35 35 35 36 35 34 34 34 34 34 33 33 32 31 30
7 10 8 9 17 21 15 6 4 6 9 6 5 8 5 1 1 1 2 1 4 5 2 2 6 7 11 6 4 10 9 8 10 11 12 13 20 28 29 28 25 24 27 28 29 29 30 32 33 35 37 36 36 35 33 33 35 37 37 38 39 38 36 35 36 36 36 36 35 35 34 34 34 35 35 35 34 34 34 35 35 34 33 32 31 30
6 7 9 7 9 19 18 10 6 5 8 9 9 10 8 5 4 7 6 2 4 4 1 2 4 4 9 4 8 14 13 15 17 19 22 21 24 28 28 27 25 24 23 21 22 23 23 25 26 27 30 31 33 33 32 32 32 34 36 38 39 38 36 36 36 36 36 35 34 34 33 32 33 34 34 33 33 34 34 34 34 34 33 32 31 29
11 7 13 13 10 19 19 15 14 10 10 12 7 6 7 6 6 7 6 4 3 1 0 2 3 4 5 2 7 11 12 17 20 23 25 25 28 30 30 31 31 32 29 22 21 22 21 20 20 20 22 24 27 29 30 30 30 32 35 37 38 38 37 37 37 37 37 35 34 34 33 32 33 33 33 33 33 34 34 34 34 34 33 31 30 28
10 5 11 14 12 20 18 13 16 13 8 7 4 4 6 5 4 1 2 3 3 2 1 3 3 4 4 6 9 7 9 13 17 20 20 24 29 27 28 32 33 34 34 27 24 22 19 17 16 16 18 20 22 23 25 26 27 29 31 34 36 36 37 37 37 37 37 35 34 34 34 33 33 33 34 34 34 34 34 34 34 33 32 30 29 28
9 5 11 13 10 20 22 15 17 15 10 5 5 7 4 3 6 4 1 2 4 2 3 3 6 5 3 8 11 10 12 11 12 15 17 22 25 23 27 31 29 29 30 30 28 24 19 16 16 16 16 17 18 19 21 22 23 25 27 30 32 33 35 35 36 37 36 35 35 35 35 33 33 34 34 34 34 34 35 35 34 32 31 30 28 28
8 3 9 15 13 21 25 20 17 13 9 7 8 8 4 4 3 4 1 3 3 4 4 2 8 5 1 6 6 7 13 15 14 14 13 15 17 20 26 28 25 25 24 26 28 23 19 16 16 16 16 17 17 19 20 20 21 22 24 26 28 30 32 33 34 35 36 36 35 35 34 33 33 33 34 34 34 35 35 34 32 31 30 29 28 27
7 3 2 11 11 12 13 14 10 5 1 3 8 9 6 3 2 2 3 2 2 5 4 3 4 4 7 8 2 4 11 14 15 13 9 10 13 19 24 23 21 21 20 23 25 21 17 15 15 15 16 17 17 19 21 22 23 24 24 26 27 29 30 30 32 33 34 34 34 33 33 33 33 34 35 35 35 34 34 32 31 30 29 28 27 26
6 5 2 4 5 9 8 7 10 7 3 4 5 6 3 3 4 5 4 2 3 5 5 4 2 4 9 8 7 10 11 10 11 9 8 11 16 22 25 23 20 19 20 23 23 20 17 15 15 16 17 17 17 20 23 24 26 26 26 26 27 28 28 29 30 32 32 32 32 33 34 34 35 35 35 34 33 33 32 30 29 28 27 26 26 25
3 4 4 1 3 9 9 9 15 17 9 5 7 7 6 4 2 2 3 2 3 4 5 5 6 8 7 6 12 15 12 11 13 10 9 11 16 20 22 24 23 20 20 24 24 21 18 17 17 18 18 18 20 21 23 25 26 26 26 26 26 27 27 28 29 30 31 31 32 33 34 34 33 33 33 32 32 31 29 28 28 26 25 25 24 24
2 3 6 5 5 10 12 13 15 18 17 13 12 13 13 10 5 5 7 3 2 4 5 4 8 10 5 5 10 13 12 14 15 11 7 9 14 17 17 19 22 21 18 22 25 23 21 19 19 19 19 20 21 22 23 24 25 25 25 25 25 26 26 26 27 27 29 30 31 32 32 31 31 31 31 30 30 29 27 26 25 24 23 23 22 21
3 3 5 4 4 6 6 6 3 5 13 12 8 9 10 9 7 8 9 5 2 4 3 2 6 9 4 7 9 10 11 13 13 9 7 10 15 18 18 17 19 20 18 18 21 23 23 22 20 20 21 21 22 22 22 23 23 23 23 23 24 24 24 24 24 25 27 28 29 29 29 29 28 28 28 28 27 26 25 24 22 22 22 21 20 20
2 4 5 3 1 1 2 1 5 4 8 9 5 4 8 10 11 8 6 4 4 5 4 2 8 10 4 6 8 7 7 9 11 12 11 13 15 17 19 16 15 18 19 17 17 18 21 23 22 22 22 22 22 22 23 23 23 23 23 23 23 22 22 22 22 24 25 25 26 26 26 26 25 25 26 25 25 24 22 22 21 20 20 19 19 20
6 6 8 6 3 1 2 2 2 4 4 8 6 7 10 14 13 4 2 2 3 9 10 6 12 13 3 1 3 5 7 8 13 17 17 16 15 14 15 14 12 14 16 17 17 17 20 23 23 24 23 21 21 22 23 23 23 24 23 23 23 22 21 22 22 24 24 25 26 26 26 25 24 24 24 23 22 21 20 20 20 20 20 20 20 20
10 6 9 10 9 8 8 10 12 9 9 10 12 14 15 19 19 10 6 7 7 12 12 9 14 11 2 3 2 4 5 7 11 16 16 15 15 13 12 13 13 13 13 14 15 16 20 23 24 25 24 22 21 23 24 24 24 24 24 24 23 22 21 22 23 25 26 27 28 28 27 26 25 23 22 21 21 20 20 20 20 20 20 20 20 20
4 3 11 13 13 16 16 15 17 17 14 13 18 23 23 24 25 18 12 11 12 14 12 14 21 14 1 1 4 5 6 7 7 10 12 12 12 12 12 12 12 13 13 13 14 16 19 22 23 24 23 23 23 23 25 25 25 25 25 24 23 22 22 23 24 25 26 28 29 29 27 26 24 22 21 21 21 20 20 20 21 20 20 20 20 20
2 5 14 15 18 20 10 5 10 14 16 17 21 25 24 24 25 21 17 17 16 14 12 16 23 19 8 3 6 7 7 6 6 8 10 9 8 10 11 10 11 12 13 14 16 17 18 19 20 21 22 22 22 23 25 25 25 26 25 24 22 22 23 24 25 25 25 26 26 25 25 23 22 22 22 22 21 21 21 21 20 20 19 19 19 18
3 8 17 16 20 19 6 7 11 16 18 20 22 24 23 22 23 22 22 23 19 15 15 18 20 19 12 6 8 9 7 8 8 7 7 6 6 8 10 11 12 12 14 16 17 17 17 18 19 19 20 19 19 21 24 25 25 25 24 23 22 23 24 24 25 25 24 23 22 22 22 23 23 24 23 22 22 21 21 20 20 19 19 18 18 17
4 8 15 14 17 17 8 7 11 15 17 18 20 21 21 21 22 22 23 24 21 16 15 17 17 15 12 10 12 15 15 14 10 7 6 4 5 7 9 11 13 14 16 17 16 17 17 18 19 19 19 19 19 20 21 23 24 23 23 23 23 24 25 25 25 25 24 23 22 22 24 24 25 24 23 22 21 21 20 20 19 19 19 18 17 17
6 9 12 10 11 13 9 7 10 15 17 18 19 19 18 17 18 18 19 20 18 15 16 18 17 15 12 12 15 21 24 18 11 10 11 9 7 7 9 13 16 16 17 16 15 17 18 19 21 21 21 20 20 19 20 21 23 23 23 23 24 25 26 26 26 26 24 23 23 24 25 25 25 23 22 22 21 21 20 20 20 19 19 18 18 18
7 8 8 8 9 10 10 11 13 14 16 20 21 19 17 16 16 18 20 21 20 20 22 21 16 17 15 10 12 17 20 18 16 17 16 14 15 14 15 17 16 14 14 14 16 19 21 23 24 23 23 22 20 21 21 21 23 24 24 24 24 26 27 27 27 27 26 25 25 26 25 25 24 23 22 22 22 22 21 20 21 20 19 19 19 18
9 8 7 8 8 8 11 15 15 13 14 16 18 19 21 20 21 22 22 25 24 21 19 18 19 19 10 7 9 12 14 17 21 24 25 24 24 24 23 23 21 18 17 17 21 25 25 25 26 25 24 22 21 22 22 23 24 25 24 24 25 27 28 29 29 29 28 27 26 26 26 25 24 24 24 24 23 23 22 22 22 22 21 20 20 20
11 12 9 7 8 10 13 14 12 12 12 11 14 23 28 29 30 29 27 29 29 21 16 15 18 15 3 9 12 14 13 19 26 31 35 35 33 33 34 31 28 27 26 24 26 30 29 27 26 26 26 25 23 23 24 25 26 26 25 26 27 29 30 31 32 31 29 28 28 27 26 26 26 25 25 25 25 25 24 24 24 23 22 22 22 22
10 13 9 6 6 7 9 11 10 11 10 11 16 25 30 31 31 28 26 26 23 18 16 17 19 19 14 14 14 12 14 24 29 32 35 38 40 41 40 38 36 36 37 37 36 37 36 34 32 32 31 30 29 29 29 28 28 27 27 28 29 30 32 33 34 32 30 30 28 27 28 28 27 27 26 27 27 27 26 26 26 25 24 24 24 23
4 8 8 7 6 5 7 10 10 5 8 14 17 18 20 20 17 15 17 21 21 21 23 25 28 29 22 14 10 9 14 20 23 29 35 38 40 41 40 39 40 41 43 44 43 42 41 40 40 40 38 36 36 36 34 31 29 29 30 30 30 31 34 36 36 34 32 30 29 29 29 29 28 28 28 28 28 29 29 28 28 27 26 25 24 24
3 1 4 6 8 7 8 10 7 3 9 15 13 11 15 18 19 19 19 24 27 27 23 21 25 26 18 13 14 13 11 9 11 23 38 41 38 38 39 39 38 39 40 40 38 37 38 39 42 43 42 39 38 37 34 32 31 31 31 31 32 34 37 39 37 35 33 31 30 31 30 30 29 28 28 29 30 31 31 30 30 29 28 27 26 26
6 4 2 2 5 6 7 9 8 7 10 13 14 16 21 26 27 23 18 17 16 15 16 17 22 24 21 19 15 11 9 6 8 18 31 37 36 35 35 35 37 38 38 36 34 34 36 37 38 40 40 40 39 37 33 31 31 31 32 33 35 37 40 41 39 37 35 33 32 32 32 30 29 29 30 30 31 32 32 32 31 31 30 29 28 27
6 5 3 1 2 4 7 8 9 8 8 12 17 19 19 21 17 9 8 13 10 13 22 25 23 24 25 19 14 13 8 7 12 15 15 20 28 33 35 38 41 42 39 36 36 37 37 36 35 37 40 41 39 35 32 30 30 30 31 33 37 41 43 43 42 40 37 35 34 34 33 32 30 30 31 31 31 32 32 32 33 33 32 31 30 28
6 5 4 5 4 4 5 6 5 4 5 7 10 11 14 21 18 10 10 19 15 15 25 25 23 28 30 20 15 12 8 11 18 20 14 16 26 33 37 42 45 42 41 40 39 40 39 37 37 39 41 41 38 35 33 33 32 31 30 32 37 44 46 45 44 42 41 39 37 37 36 34 33 33 32 31 31 32 33 33 34 34 34 33 32 30
3 3 5 8 7 4 5 5 2 2 3 4 3 12 24 25 16 12 16 15 8 14 25 28 29 34 33 20 17 13 21 32 40 35 21 19 27 30 33 39 41 39 41 42 41 41 41 41 41 41 41 41 40 38 38 38 37 36 33 33 38 44 47 46 45 45 45 43 41 40 39 38 37 36 34 33 33 33 34 34 35 35 35 35 34 33
3 3 3 6 7 4 2 3 3 2 3 6 2 19 27 18 10 11 10 4 5 18 30 33 32 33 31 25 25 30 39 47 50 39 26 25 28 29 31 36 37 37 39 40 39 40 41 42 43 43 44 44 43 42 41 41 42 41 38 36 38 40 42 46 48 48 48 47 45 43 42 41 40 39 38 36 35 35 36 36 36 37 37 37 36 35
2 3 3 4 5 3 3 2 3 3 4 10 3 11 15 7 4 1 3 3 3 6 19 27 30 33 33 32 37 44 46 47 46 39 34 33 33 32 34 37 38 40 40 39 39 38 38 40 42 43 45 45 45 44 44 44 46 44 42 41 39 35 37 47 52 51 51 51 49 47 46 45 44 43 42 40 39 38 38 38 38 39 39 39 38 37
1 1 2 3 2 3 5 4 3 4 2 9 6 1 2 1 4 8 8 6 8 8 1 9 16 22 25 27 34 38 39 41 42 38 36 37 38 40 42 42 41 40 38 37 36 34 34 37 39 40 42 42 42 43 44 44 45 43 43 42 37 32 34 44 51 53 54 54 53 51 49 48 47 47 45 44 43 42 41 40 40 40 41 41 40 39
1 1 1 1 1 2 4 4 2 2 6 10 8 5 7 8 7 7 8 7 7 10 10 6 3 3 7 13 21 25 28 33 36 34 32 33 36 39 41 42 41 40 39 39 37 35 35 37 38 39 40 40 40 40 40 40 40 40 40 38 34 31 33 38 43 49 52 54 55 55 54 52 52 51 49 48 47 46 45 43 42 42 43 43 42 41
0 2 2 1 2 2 2 4 4 4 9 13 11 9 10 11 9 7 8 9 8 8 10 9 8 7 8 6 6 10 14 19 24 25 25 26 28 30 33 37 38 37 37 37 34 32 32 33 34 36 37 39 39 39 40 40 40 41 40 37 34 34 34 35 37 40 43 46 49 52 55 56 56 54 52 51 50 49 48 47 45 44 45 45 44 43
1 4 2 1 1 2 1 3 3 1 5 11 14 13 13 13 12 10 11 12 12 12 11 10 9 9 9 8 7 7 7 8 10 12 13 15 17 19 20 23 24 23 24 23 21 21 22 23 25 27 30 31 32 34 37 39 39 39 38 35 35 35 34 34 36 37 38 39 41 45 49 52 54 55 54 53 52 52 51 50 48 46 47 46 45 44
1 3 3 1 2 2 2 2 2 2 8 14 18 17 15 16 17 16 16 16 14 12 12 12 12 11 11 11 11 10 10 10 9 10 10 11 12 13 14 15 15 15 16 17 18 19 19 19 20 21 22 22 22 24 29 32 34 35 34 34 34 35 35 36 38 38 39 39 40 42 44 47 49 51 53 53 53 53 53 53 52 50 49 48 47 46
2 1 2 1 1 2 3 4 3 5 8 12 14 14 13 16 19 20 20 19 17 14 14 16 16 15 15 16 15 14 13 14 14 13 14 14 15 16 16 17 17 18 19 20 21 20 19 19 17 15 15 15 15 16 19 21 23 25 26 27 28 30 32 35 36 38 39 40 41 43 44 45 47 49 50 52 52 53 53 53 53 52 50 49 48 46
2 2 1 1 0 3 3 3 3 2 3 6 10 13 14 14 15 18 20 21 20 18 18 20 20 19 19 19 19 19 18 18 18 19 18 19 20 21 21 21 22 23 24 23 22 21 19 17 16 15 16 19 20 19 17 15 14 15 16 17 20 22 26 29 31 34 37 39 41 43 44 46 48 49 50 51 51 51 51 51 51 50 49 48 47 44
3 4 2 1 2 3 2 3 3 2 2 3 6 9 10 9 11 14 17 19 20 21 23 25 24 24 25 24 23 23 24 24 24 23 23 24 24 23 24 25 26 26 26 25 24 22 19 19 20 22 25 25 24 21 19 17 15 14 13 14 15 17 20 23 27 30 33 35 37 40 42 44 46 47 48 49 49 49 50 50 49 49 48 47 46 43
Wind_Direction
169 161 195 205 202 196 197 200 200 165 152 158 156 182 199 207 232 202 212 233 178 183 231 224 237 251 249 249 253 256 251 244 251 255 252 250 248 246 245 245 244 243 246 248 247 245 242 240 242 246 246 244 242 238 236 235 235 236 235 235 234 232 234 235 234 234 233 233 234 234 236 238 240 241 242 242 242 242 242 242 241 241 240 241 242 244
176 190 211 205 197 187 187 185 171 152 151 153 167 190 208 212 230 207 207 230 165 180 245 229 246 257 250 252 259 259 248 236 241 245 248 249 249 248 247 247 248 247 248 249 248 245 242 241 244 247 247 245 243 240 238 236 235 235 236 236 236 235 234 234 234 234 234 235 235 237 240 243 245 246 246 247 247 247 247 246 245 245 244 244 243 244
181 214 213 196 178 164 165 172 162 160 166 169 172 182 212 207 227 273 230 204 154 184 254 236 245 256 254 257 261 256 242 240 244 244 247 248 248 248 247 248 250 251 249 248 248 247 245 245 246 248 247 245 244 243 241 240 238 236 236 236 236 237 236 235 235 236 236 237 238 241 245 247 250 251 252 253 252 250 250 249 248 247 247 247 247 247
192 219 204 182 171 163 165 179 176 161 172 181 170 178 208 169 152 238 234 183 170 178 200 225 269 266 262 265 262 254 244 245 250 250 251 251 249 250 252 253 253 253 252 251 251 250 249 248 248 247 246 245 244 243 242 240 239 237 237 237 237 238 239 238 238 237 238 240 241 244 247 250 251 253 253 253 251 248 247 247 247 246 246 247 248 249
201 202 174 175 178 168 165 179 185 186 180 195 194 189 188 155 170 205 179 131 153 279 107 74 318 278 240 241 257 255 239 240 247 248 250 250 250 252 254 255 255 254 255 254 253 251 251 250 249 248 247 245 244 243 242 241 240 238 238 237 238 240 242 242 242 241 240 240 241 242 244 247 248 248 248 246 245 243 242 244 245 246 246 246 247 248
210 160 161 169 174 170 172 185 191 191 185 215 215 187 156 151 167 162 137 115 91 279 258 110 287 277 236 228 251 258 218 235 242 241 244 247 248 248 249 252 253 254 254 254 253 252 252 252 252 252 250 247 245 243 242 243 244 244 243 240 240 241 243 245 245 244 243 241 240 240 241 242 243 244 244 245 246 245 246 249 249 250 249 249 249 249
204 171 159 158 169 173 181 192 188 181 187 221 189 154 141 131 137 151 151 156 184 240 276 154 209 266 284 232 242 245 237 250 248 242 245 246 246 244 245 249 251 252 251 251 251 250 251 252 252 252 251 249 248 246 245 245 246 248 247 245 243 242 243 244 246 246 245 243 242 242 242 243 245 247 248 250 253 254 255 256 256 256 256 255 254 253
162 170 160 160 170 173 189 198 187 176 183 216 151 148 153 112 117 156 158 189 226 262 316 165 173 263 270 248 242 221 240 266 266 257 250 243 243 244 245 247 249 250 251 251 251 251 252 252 252 252 251 250 251 252 251 249 248 248 248 249 248 245 243 243 245 246 247 246 245 244 244 246 247 249 251 254 256 258 259 260 259 260 261 260 261 260
164 172 168 166 171 180 196 190 168 169 178 228 138 143 147 108 105 120 128 175 320 343 250 218 138 234 261 263 308 191 236 259 258 251 249 241 240 243 245 248 250 252 254 254 255 255 255 254 254 255 254 253 253 253 253 253 252 250 247 248 249 248 245 244 245 247 248 248 248 247 248 248 249 251 254 256 258 259 260 261 261 262 262 263 263 263
165 178 170 164 175 187 183 141 150 168 176 138 111 97 86 77 74 69 86 109 44 290 231 202 174 219 263 253 211 140 221 241 250 249 246 244 244 246 248 251 253 254 255 256 257 257 257 256 256 257 257 257 255 253 252 252 252 251 247 246 248 249 247 246 247 248 249 249 249 249 250 251 252 253 254 257 258 259 260 261 262 263 264 265 265 266
152 168 166 166 183 166 119 121 154 158 138 116 98 82 68 44 47 54 45 80 63 263 224 192 186 202 267 250 191 194 209 219 239 250 248 244 247 251 252 254 255 255 255 256 257 258 258 259 258 257 256 255 255 254 251 249 248 248 246 244 246 249 250 249 249 249 249 249 250 251 252 253 254 254 255 257 258 259 261 262 264 266 267 269 269 270
139 151 163 177 175 146 112 120 140 138 142 127 102 114 102 34 27 31 10 63 204 248 225 188 174 180 240 245 175 215 227 214 226 235 237 232 241 249 254 257 259 259 260 259 260 260 260 260 258 256 254 252 253 252 249 246 245 245 243 243 244 246 248 250 250 251 250 250 250 250 251 252 253 254 255 256 257 259 261 263 266 268 269 270 271 273
150 166 169 162 162 149 134 129 113 136 160 146 129 143 146 162 139 207 218 132 221 243 295 179 152 184 239 245 216 242 245 235 235 235 234 229 235 245 253 261 266 266 265 263 264 264 262 259 256 254 253 250 249 249 248 246 244 243 243 242 244 245 246 249 251 252 251 250 249 248 249 249 250 253 254 255 257 259 261 263 265 267 268 270 271 273
160 191 170 142 153 160 155 147 155 167 172 173 166 167 178 173 180 207 197 192 236 236 324 163 147 238 263 263 232 238 239 239 242 244 244 244 245 251 256 261 266 266 265 267 268 267 264 259 254 252 251 247 245 246 248 247 244 243 242 242 243 244 246 248 250 252 251 250 249 247 247 247 249 251 252 254 257 259 261 263 265 267 269 271 273 275
169 193 176 169 167 169 170 172 172 160 167 187 176 165 197 188 189 209 195 197 218 178 309 205 171 207 219 261 246 240 249 252 252 251 251 254 256 258 260 260 259 258 259 265 270 270 266 258 251 247 244 240 240 243 246 248 245 243 242 242 243 244 245 246 247 249 250 250 248 246 246 248 250 252 254 255 257 259 261 263 265 268 270 274 276 278
185 219 176 172 159 164 176 176 159 141 157 194 151 163 223 199 151 139 203 191 133 109 250 217 232 221 203 280 279 254 255 257 255 255 252 252 254 255 255 256 256 255 255 254 260 267 264 253 243 238 235 234 237 241 244 244 243 242 242 242 243 244 245 246 247 248 249 250 248 246 248 250 252 254 255 256 258 259 260 262 265 269 273 276 277 277
196 215 170 164 155 174 180 166 158 158 157 167 172 190 207 121 110 100 254 9 73 204 237 184 243 286 324 283 269 250 256 260 253 249 242 243 248 248 249 253 255 256 252 245 246 257 260 248 237 232 232 234 235 236 237 236 237 238 240 241 243 244 244 244 244 246 247 249 248 248 248 250 253 255 257 258 259 260 261 263 267 271 273 274 273 273
184 177 172 169 171 186 178 157 164 172 147 154 191 187 124 85 96 106 170 11 47 239 266 214 235 262 286 262 256 236 249 255 252 249 242 241 240 240 246 251 254 255 250 239 237 247 252 243 236 234 233 231 230 233 235 235 236 236 237 238 240 241 242 241 241 243 245 247 248 247 246 248 253 257 258 259 259 261 263 265 268 270 270 270 270 271
165 93 209 190 178 177 158 140 163 196 65 149 176 161 140 167 207 157 174 189 189 235 279 276 252 241 220 226 219 225 234 238 248 253 253 247 233 235 245 250 253 253 242 231 229 236 240 234 235 239 235 228 228 235 239 239 238 235 234 235 237 239 240 241 241 242 245 246 246 245 246 249 253 256 259 260 262 263 264 265 266 266 266 266 268 269
170 147 198 215 165 145 146 157 178 193 332 21 118 146 167 196 193 191 190 165 180 228 268 282 292 243 222 195 179 221 235 234 245 248 241 241 234 236 243 246 250 251 236 224 223 227 228 227 233 236 233 230 236 242 241 240 239 237 235 235 236 237 239 239 240 241 243 244 244 246 248 250 253 256 258 260 261 262 262 262 262 261 262 264 266 267
171 177 164 116 127 152 171 195 187 184 179 149 159 177 198 201 170 188 203 127 141 202 240 259 264 254 239 178 181 210 232 237 238 237 230 235 237 242 247 243 243 248 239 225 221 222 224 227 231 231 232 236 242 242 237 235 237 237 236 236 236 236 236 236 237 238 240 241 243 245 248 250 252 254 256 257 258 258 257 256 256 258 261 262 263 264
164 190 165 149 168 176 188 200 197 192 184 177 185 186 187 189 170 188 212 185 131 202 194 211 259 261 237 183 190 202 219 233 240 250 248 236 239 249 257 247 239 244 242 229 224 224 225 227 228 229 234 238 240 238 233 231 232 233 233 233 234 234 235 236 237 237 239 240 242 244 247 249 250 251 251 252 251 250 250 251 254 257 258 258 258 259
124 121 141 138 174 193 203 197 163 181 191 198 208 187 175 181 177 193 213 197 168 221 168 130 269 271 212 183 196 198 215 234 247 265 265 249 244 246 254 252 239 239 240 234 230 228 226 226 226 229 233 235 236 235 232 230 229 229 229 231 234 236 237 238 239 239 240 241 242 244 246 246 246 244 243 242 243 245 247 250 252 252 251 251 251 251
97 108 133 113 130 329 343 85 54 62 189 205 230 181 163 183 195 200 203 177 167 212 207 216 262 264 230 194 210 226 252 265 265 261 255 254 252 246 248 248 238 235 236 234 234 229 223 223 225 228 230 233 233 232 231 231 230 229 230 233 237 240 241 243 244 243 243 242 242 241 240 239 236 234 235 239 243 245 246 245 243 242 242 241 242 243
183 170 158 146 155 150 53 97 22 2 201 197 203 194 182 187 189 171 133 151 191 208 198 208 249 255 259 143 238 274 298 295 270 259 253 252 253 250 247 243 236 234 230 227 229 224 217 218 223 227 231 235 234 230 229 231 231 232 234 238 241 243 244 246 246 246 245 243 240 238 234 230 228 231 237 240 241 239 236 234 232 232 232 234 237 240
184 182 174 170 170 178 178 187 194 191 190 194 192 191 192 189 183 176 187 195 209 213 195 198 238 249 45 59 275 288 294 286 271 266 260 250 248 250 245 236 233 232 224 217 218 215 212 216 222 227 233 238 236 231 230 231 233 236 239 242 243 244 245 247 247 246 245 242 240 236 231 227 228 233 236 234 230 226 224 223 224 226 229 233 236 239
175 188 192 195 191 193 197 199 191 180 181 190 190 191 194 193 188 189 199 201 206 217 208 209 228 234 149 21 281 283 273 271 276 278 272 255 243 243 240 228 218 218 216 210 208 211 214 219 225 229 234 240 240 236 233 233 237 240 242 244 245 245 247 247 246 245 244 243 240 234 228 225 228 229 225 220 218 216 217 219 223 227 230 235 238 242
146 201 199 207 212 210 202 157 157 169 184 193 195 198 199 196 194 194 205 209 205 214 222 218 226 232 229 258 275 263 258 264 267 273 276 267 245 233 229 217 205 208 210 209 211 214 219 225 230 235 240 243 243 240 237 236 239 242 245 246 244 245 247 247 245 243 241 240 234 226 220 219 219 216 212 212 212 213 217 221 226 230 233 238 242 246
178 207 202 205 215 216 180 116 154 174 192 199 199 202 201 199 199 201 211 216 209 212 229 226 225 230 226 233 257 251 235 232 243 263 276 273 250 229 217 207 205 207 208 210 212 216 222 228 233 239 246 249 247 242 238 239 241 243 246 246 244 246 247 245 241 238 233 228 220 212 208 207 207 207 208 210 212 216 222 226 230 233 237 241 245 248
189 209 207 203 214 217 185 150 171 177 192 206 204 205 203 201 205 209 217 224 222 225 240 241 242 242 222 207 228 242 241 235 241 263 269 261 243 229 221 216 215 212 209 209 214 220 226 233 237 242 247 250 251 248 244 242 244 245 247 246 245 247 247 242 237 232 226 217 207 201 200 201 204 206 209 214 218 223 227 229 232 236 239 243 246 249
210 212 206 193 210 218 193 175 183 180 190 205 207 206 203 199 206 215 223 230 231 235 245 249 255 255 234 201 206 227 239 243 243 241 242 248 253 246 237 231 226 221 219 223 230 237 241 245 247 248 250 254 256 256 253 248 245 245 245 244 244 246 244 238 233 226 217 207 199 197 200 203 207 211 214 219 224 226 229 231 235 239 242 246 249 252
212 212 196 189 212 214 190 193 201 188 191 205 207 200 194 194 204 212 219 222 218 219 230 236 242 246 238 201 186 210 224 234 242 239 236 241 248 254 259 257 253 251 251 256 260 259 256 255 256 256 258 263 266 264 260 253 246 243 242 242 244 243 239 233 228 219 208 201 198 200 204 208 212 216 220 223 226 228 231 235 238 243 247 250 253 256
195 208 197 188 207 211 195 198 201 194 200 211 206 192 189 196 204 210 218 222 216 212 219 224 230 238 230 155 173 203 204 215 232 237 239 246 251 254 258 262 266 271 273 273 271 269 267 264 263 264 264 268 272 271 266 259 250 245 242 242 242 238 234 228 221 212 204 202 203 205 208 212 216 220 223 226 229 231 233 238 242 246 251 254 256 257
191 205 207 186 199 211 196 188 194 205 209 204 193 191 194 197 201 206 213 217 215 213 219 231 240 247 202 142 195 217 200 204 218 225 232 242 250 255 257 257 259 264 268 267 265 266 267 265 263 263 266 271 275 275 270 260 250 245 242 241 238 234 230 223 214 208 206 206 207 208 212 217 220 223 226 229 232 234 236 240 245 248 252 255 257 258
199 204 205 192 206 207 175 174 203 216 204 192 193 197 199 200 202 208 218 223 221 219 232 247 251 248 228 204 216 226 209 210 216 220 226 232 237 243 249 252 254 257 261 262 260 261 263 265 267 268 270 274 276 274 270 259 250 245 241 238 234 230 225 218 212 210 209 209 210 212 217 221 224 227 229 232 235 237 240 243 246 249 252 255 258 260
203 211 210 195 195 185 165 188 215 208 180 197 205 199 197 201 202 209 231 237 226 215 218 226 233 237 232 220 225 232 221 218 221 224 228 231 232 235 239 245 249 251 254 256 257 258 260 262 265 267 268 270 269 267 266 262 255 249 242 236 231 226 220 215 213 212 211 212 215 219 222 225 227 230 232 236 238 240 243 245 248 251 253 256 259 261
127 221 241 212 201 197 188 197 210 176 182 206 214 190 183 193 192 194 217 229 220 213 215 223 236 244 244 234 228 218 210 214 225 232 232 230 230 233 236 241 246 249 250 252 254 256 256 255 256 259 261 261 262 263 265 264 259 253 245 237 229 222 218 215 214 214 215 218 222 224 226 228 230 233 236 239 241 243 246 248 250 251 253 256 259 262
162 180 225 232 222 212 197 198 207 205 200 208 208 195 193 199 198 197 215 232 223 207 206 222 238 242 240 236 218 179 164 200 244 249 239 228 225 230 235 240 245 246 246 246 247 249 251 252 253 256 259 260 262 265 268 267 261 254 248 240 229 221 217 216 216 216 219 224 228 229 230 231 232 235 238 241 243 245 247 249 251 252 254 255 259 262
160 168 151 163 250 230 209 204 203 209 215 210 205 204 198 190 178 167 218 239 231 194 196 210 226 234 238 229 185 152 158 219 249 251 227 209 218 227 231 238 243 244 244 243 243 246 250 254 255 255 258 260 261 263 266 266 261 255 252 245 233 223 218 217 218 219 223 229 233 234 233 233 234 237 239 243 245 246 247 249 251 253 254 255 258 261
160 167 175 198 232 255 240 228 212 218 237 223 211 196 160 145 133 126 207 232 235 201 196 205 216 229 236 218 166 163 196 218 241 245 215 203 226 231 233 241 245 246 247 247 246 248 251 253 252 252 254 255 256 258 262 264 262 259 257 252 240 229 222 220 222 224 227 231 234 235 236 235 235 238 240 244 246 247 247 248 250 252 253 254 256 258
160 171 196 207 216 241 247 246 260 251 268 288 227 149 135 133 145 185 212 231 224 179 190 205 215 226 231 204 164 194 225 228 239 246 235 225 232 231 238 248 250 251 253 253 253 253 253 252 251 251 252 254 256 260 264 265 265 264 262 257 248 238 229 225 227 228 229 231 233 235 237 237 237 239 240 243 246 247 247 248 249 251 252 253 254 256
159 160 188 200 203 211 224 249 272 251 315 334 183 149 140 145 191 212 209 221 141 168 192 207 212 222 228 209 198 220 232 235 241 243 237 235 236 236 244 252 252 252 255 256 256 255 254 254 255 255 255 255 257 260 261 262 264 266 264 260 256 249 240 233 231 230 232 233 234 236 238 239 240 240 240 241 244 246 248 248 248 249 250 251 251 253
181 162 174 190 189 171 168 218 244 230 347 359 16 155 149 162 239 313 49 27 51 175 204 210 211 218 223 217 217 226 233 238 241 241 238 240 243 244 248 252 253 254 255 255 254 254 255 256 258 259 260 260 261 262 262 263 265 266 266 263 263 261 251 241 236 234 234 236 236 237 239 241 242 242 241 242 244 246 248 248 248 248 249 249 250 251
246 170 181 192 182 165 184 208 197 187 282 348 2 150 159 352 350 10 19 13 18 30 107 207 218 227 231 229 228 231 235 239 242 243 242 243 246 248 249 251 253 253 254 254 255 256 258 260 262 264 266 266 266 266 267 267 267 266 267 268 269 267 257 248 243 240 239 239 239 239 240 243 244 244 244 244 245 247 248 249 248 248 249 249 249 250
239 185 184 207 226 185 188 211 193 190 285 313 326 306 306 318 323 338 351 354 11 31 38 35 13 296 271 253 243 241 243 245 246 247 247 247 248 249 251 252 252 253 256 259 261 262 263 265 267 268 268 268 268 269 270 271 271 271 271 274 276 273 264 256 251 248 247 247 246 245 244 244 245 246 246 246 247 247 249 250 249 248 249 248 248 249
184 166 127 93 246 257 238 234 251 300 303 307 318 319 320 329 330 323 332 337 343 354 358 3 12 8 352 327 282 265 263 261 260 260 259 259 260 260 259 258 258 260 263 266 270 273 274 274 274 274 273 272 270 270 270 270 271 272 273 275 277 275 270 264 259 256 255 255 254 253 250 247 246 247 248 248 249 249 250 250 250 249 249 248 248 248
271 190 164 59 260 271 286 191 187 216 302 309 320 321 319 325 322 308 309 316 320 327 337 351 1 351 341 340 340 337 334 321 300 289 285 283 283 284 281 275 273 273 273 277 284 286 284 282 281 280 279 276 273 270 269 268 268 270 271 272 272 272 271 268 265 263 261 260 259 258 255 252 250 250 250 250 251 251 250 250 250 249 248 247 247 248
274 186 186 197 203 212 223 205 202 292 299 301 305 306 312 323 324 318 317 319 324 334 344 352 355 351 347 346 344 342 345 344 338 332 326 316 311 311 309 306 302 297 292 294 300 300 296 294 295 293 286 281 278 274 270 269 269 269 270 270 269 269 268 266 265 265 264 262 261 259 257 256 254 253 253 254 254 254 253 252 251 250 249 249 249 249
312 185 188 192 217 261 285 284 301 321 306 296 299 309 328 336 332 329 327 324 326 337 345 347 348 348 347 345 342 338 337 338 337 332 327 324 323 322 322 322 319 315 312 313 313 313 310 307 307 307 303 303 305 295 283 277 275 272 270 268 267 266 265 264 263 262 262 261 260 258 256 255 255 254 254 255 255 255 255 254 252 251 250 250 249 248
310 233 193 99 248 269 268 234 220 273 289 284 301 318 329 332 326 321 320 319 323 333 338 339 341 340 339 338 336 332 330 332 334 331 328 328 329 328 326 326 324 322 324 325 322 318 314 309 305 305 308 314 318 313 302 295 290 283 278 273 270 268 266 264 262 261 260 259 259 258 257 256 255 254 253 253 253 253 253 252 250 248 247 247 246 246
226 237 238 186 228 266 296 265 244 264 312 318 322 325 327 327 317 309 309 310 312 316 322 326 328 329 328 328 329 326 324 326 329 330 328 328 329 328 326 325 324 324 325 325 322 317 312 307 300 298 302 308 310 306 299 294 290 286 281 278 276 275 272 269 266 263 261 260 258 258 259 258 257 256 255 254 253 252 251 249 247 244 243 243 242 242